{"data":{"norad_id":63258,"intl_designator":"2025-052BA","name":"ICEYE-X46","alt_names":[],"object_type":"PAYLOAD","status":"ACTIVE","operator":null,"country":"FIN","launch_date":"2025-03-15","launch_site_code":"AFWTR","launch_vehicle":null,"mission":null,"orbit_class":"UNKNOWN","rcs_meters":null,"size_class":null,"mass_kg":null,"dimensions":null,"purposes":[],"wikipedia_slug":null,"has_3d_model":false,"image_url":null,"decayed_at":null,"tle_current":{"epoch":"2026-05-24T22:24:08.006400Z","epoch_age_seconds":76911,"freshness":"FRESH","line1":"1 63258U 25052BA  26144.93342600  .00001362  00000+0  12909-3 0  9997","line2":"2 63258  97.6920  37.2718 0001719  86.8792 273.2625 14.95201710 65171","mean_motion":14.9520171,"eccentricity":0.0001719,"inclination_deg":97.692,"raan_deg":37.2718,"arg_perigee_deg":86.8792,"mean_anomaly_deg":273.2625,"bstar":0.00012909,"rev_number":6517,"period_min":96.30807605216,"perigee_km":580.55032852218,"apogee_km":582.94313654942,"semimajor_km":6959.8837325358,"source":"CELESTRAK","updated_at":"2026-05-25T13:38:03.609280Z"}}}